When you browse on this site, cookies collect data to enhance your experience and personalize the content and advertising you see.
Visit our Privacy Policy to learn more. By continuing to use the site, you agree to this use of cookies and data.
  • In United Kingdom
  • List of Countries
  • For 7 days
  • Water Temperature
  • Satellite Maps
  • Weather Map
  • Weather Widgets
  • user-avatar
    Login

    Hourly Weather Belfast

    Today, 21 March, Thursday

    Time Temperature Precipitation Wind Pressure Humidity
    00:00 +10°C° 0 mm 5 mps 769 mmHg 91%
    01:00 +10°C° 0 mm 5 mps 769 mmHg 91%
    02:00 +10°C° 0 mm 5 mps 769 mmHg 92%
    03:00 +10°C° 0 mm 5 mps 769 mmHg 92%
    04:00 +10°C° 0 mm 4 mps 769 mmHg 92%
    05:00 +10°C° 0 mm 4 mps 769 mmHg 93%
    06:00 +9°C° 0 mm 5 mps 769 mmHg 93%
    07:00 +10°C° 0 mm 5 mps 770 mmHg 92%
    08:00 +10°C° 0 mm 5 mps 770 mmHg 90%
    09:00 +12°C° 0 mm 5 mps 770 mmHg 89%
    10:00 +12°C° 0 mm 5 mps 770 mmHg 88%
    11:00 +12°C° 0 mm 5 mps 771 mmHg 87%
    12:00 +12°C° 0 mm 4 mps 771 mmHg 85%
    13:00 +13°C° 0 mm 4 mps 771 mmHg 84%
    14:00 +13°C° 0 mm 4 mps 770 mmHg 84%
    15:00 +13°C° 0 mm 3 mps 770 mmHg 83%
    16:00 +12°C° 0 mm 3 mps 770 mmHg 85%
    17:00 +12°C° 0 mm 4 mps 769 mmHg 86%
    18:00 +11°C° 0 mm 4 mps 769 mmHg 88%
    19:00 +11°C° 0 mm 4 mps 768 mmHg 88%
    20:00 +11°C° 0 mm 4 mps 768 mmHg 89%
    21:00 +10°C° 0 mm 5 mps 768 mmHg 90%
    22:00 +10°C° 0 mm 5 mps 767 mmHg 88%
    23:00 +10°C° 0 mm 6 mps 766 mmHg 87%

    Tomorrow, 22 March, Friday

    Time Temperature Precipitation Wind Pressure Humidity
    00:00 +10°C° 0 mm 6 mps 766 mmHg 85%
    01:00 +10°C° 0 mm 7 mps 765 mmHg 85%
    02:00 +10°C° 0 mm 7 mps 764 mmHg 85%
    03:00 +10°C° 0 mm 8 mps 764 mmHg 85%
    04:00 +10°C° 0.1 mm 8 mps 763 mmHg 85%
    05:00 +10°C° 0.1 mm 8 mps 763 mmHg 84%
    06:00 +10°C° 0.1 mm 8 mps 762 mmHg 84%
    07:00 +10°C° 0 mm 8 mps 762 mmHg 83%
    08:00 +9°C° 0 mm 8 mps 762 mmHg 83%
    09:00 +9°C° 0 mm 8 mps 761 mmHg 82%
    10:00 +9°C° 0.3 mm 8 mps 762 mmHg 84%
    11:00 +10°C° 0.3 mm 8 mps 762 mmHg 87%
    12:00 +10°C° 0.3 mm 8 mps 762 mmHg 89%
    13:00 +10°C° 0.2 mm 7 mps 762 mmHg 85%
    14:00 +10°C° 0.2 mm 6 mps 763 mmHg 82%
    15:00 +9°C° 0.2 mm 6 mps 764 mmHg 78%
    16:00 +8°C° 0 mm 5 mps 764 mmHg 77%
    17:00 +7°C° 0 mm 5 mps 765 mmHg 76%
    18:00 +6°C° 0 mm 4 mps 766 mmHg 75%
    19:00 +5°C° 0 mm 4 mps 766 mmHg 76%
    20:00 +4°C° 0 mm 4 mps 767 mmHg 77%
    21:00 +3°C° 0 mm 4 mps 768 mmHg 78%
    22:00 +3°C° 0 mm 4 mps 769 mmHg 78%
    23:00 +3°C° 0 mm 4 mps 769 mmHg 79%

    Day after tomorrow, 23 March, Saturday

    Time Temperature Precipitation Wind Pressure Humidity
    00:00 +1°C° 0 mm 4 mps 770 mmHg 79%
    01:00 +1°C° 0 mm 4 mps 770 mmHg 79%
    02:00 +1°C° 0 mm 4 mps 770 mmHg 79%
    03:00 +2°C° 0 mm 3 mps 771 mmHg 79%
    04:00 +2°C° 0 mm 3 mps 771 mmHg 79%
    05:00 +2°C° 0 mm 3 mps 772 mmHg 79%
    06:00 +2°C° 0 mm 3 mps 772 mmHg 79%
    07:00 +2°C° 0 mm 3 mps 772 mmHg 76%
    08:00 +3°C° 0 mm 3 mps 773 mmHg 73%
    09:00 +4°C° 0 mm 3 mps 773 mmHg 70%
    10:00 +5°C° 0 mm 3 mps 773 mmHg 66%
    11:00 +7°C° 0 mm 3 mps 773 mmHg 62%
    12:00 +8°C° 0 mm 3 mps 774 mmHg 58%
    13:00 +9°C° 0 mm 3 mps 774 mmHg 59%
    14:00 +9°C° 0 mm 2 mps 774 mmHg 60%
    15:00 +9°C° 0 mm 2 mps 773 mmHg 61%
    16:00 +8°C° 0.1 mm 2 mps 773 mmHg 67%
    17:00 +7°C° 0.1 mm 2 mps 774 mmHg 72%
    18:00 +8°C° 0.1 mm 1 mps 774 mmHg 78%
    19:00 +7°C° 0.1 mm 1 mps 774 mmHg 79%
    20:00 +6°C° 0.1 mm 1 mps 774 mmHg 80%
    21:00 +6°C° 0.1 mm 1 mps 774 mmHg 82%
    22:00 +4°C° 0 mm 2 mps 774 mmHg 83%
    23:00 +3°C° 0 mm 2 mps 774 mmHg 85%

    24 March, Sunday

    Time Temperature Precipitation Wind Pressure Humidity
    00:00 +2°C° 0 mm 2 mps 774 mmHg 86%
    01:00 +2°C° 0 mm 2 mps 774 mmHg 88%
    02:00 +2°C° 0 mm 2 mps 774 mmHg 89%
    03:00 +1°C° 0 mm 2 mps 774 mmHg 90%
    04:00 0°C° 0 mm 3 mps 774 mmHg 91%
    05:00 0°C° 0 mm 3 mps 774 mmHg 91%
    06:00 0°C° 0 mm 3 mps 774 mmHg 91%
    07:00 +2°C° 0 mm 3 mps 774 mmHg 87%
    08:00 +3°C° 0 mm 4 mps 775 mmHg 82%
    09:00 +5°C° 0 mm 4 mps 775 mmHg 78%
    10:00 +6°C° 0 mm 4 mps 775 mmHg 73%
    11:00 +7°C° 0 mm 4 mps 775 mmHg 68%
    12:00 +8°C° 0 mm 4 mps 775 mmHg 62%
    13:00 +8°C° 0 mm 4 mps 775 mmHg 64%
    14:00 +8°C° 0 mm 4 mps 775 mmHg 66%
    15:00 +8°C° 0 mm 4 mps 775 mmHg 68%
    16:00 +9°C° 0 mm 3 mps 775 mmHg 71%
    17:00 +8°C° 0 mm 3 mps 775 mmHg 75%
    18:00 +8°C° 0 mm 2 mps 775 mmHg 78%
    19:00 +7°C° 0 mm 3 mps 776 mmHg 80%
    20:00 +5°C° 0 mm 3 mps 776 mmHg 82%
    21:00 +5°C° 0 mm 3 mps 776 mmHg 84%
    22:00 +4°C° 0 mm 3 mps 776 mmHg 86%
    23:00 +3°C° 0 mm 3 mps 776 mmHg 89%

    25 March, Monday

    Time Temperature Precipitation Wind Pressure Humidity
    00:00 +3°C° 0 mm 3 mps 776 mmHg 91%
    01:00 +3°C° 0 mm 3 mps 776 mmHg 92%
    02:00 +2°C° 0 mm 3 mps 776 mmHg 92%
    03:00 +2°C° 0 mm 3 mps 776 mmHg 93%
    04:00 +3°C° 0 mm 2 mps 776 mmHg 93%
    05:00 +3°C° 0 mm 2 mps 776 mmHg 93%
    06:00 +2°C° 0 mm 2 mps 776 mmHg 93%
    07:00 +4°C° 0 mm 2 mps 777 mmHg 89%
    08:00 +5°C° 0 mm 2 mps 777 mmHg 84%
    09:00 +7°C° 0 mm 2 mps 777 mmHg 80%
    10:00 +9°C° 0 mm 1 mps 777 mmHg 75%
    11:00 +10°C° 0 mm 1 mps 777 mmHg 70%
    12:00 +12°C° 0 mm 1 mps 777 mmHg 65%
    13:00 +12°C° 0 mm 1 mps 777 mmHg 65%
    14:00 +12°C° 0 mm 1 mps 777 mmHg 65%
    15:00 +12°C° 0 mm 2 mps 776 mmHg 64%
    16:00 +12°C° 0 mm 2 mps 776 mmHg 69%
    17:00 +10°C° 0 mm 2 mps 776 mmHg 74%
    18:00 +9°C° 0 mm 2 mps 776 mmHg 79%
    19:00 +8°C° 0 mm 2 mps 776 mmHg 83%
    20:00 +6°C° 0 mm 2 mps 776 mmHg 87%
    21:00 +5°C° 0 mm 2 mps 777 mmHg 91%
    22:00 +5°C° 0 mm 2 mps 777 mmHg 91%
    23:00 +5°C° 0 mm 2 mps 777 mmHg 91%

    26 March, Tuesday

    Time Temperature Precipitation Wind Pressure Humidity
    00:00 +4°C° 0 mm 2 mps 776 mmHg 92%
    01:00 +4°C° 0 mm 2 mps 776 mmHg 92%
    02:00 +4°C° 0 mm 2 mps 777 mmHg 92%
    03:00 +4°C° 0 mm 2 mps 777 mmHg 93%
    04:00 +4°C° 0 mm 2 mps 776 mmHg 93%
    05:00 +4°C° 0 mm 2 mps 776 mmHg 94%
    06:00 +3°C° 0 mm 2 mps 776 mmHg 94%
    07:00 +5°C° 0 mm 2 mps 776 mmHg 90%
    08:00 +6°C° 0 mm 2 mps 776 mmHg 87%
    09:00 +8°C° 0 mm 2 mps 777 mmHg 83%
    10:00 +9°C° 0 mm 2 mps 776 mmHg 78%
    11:00 +11°C° 0 mm 3 mps 776 mmHg 73%
    12:00 +12°C° 0 mm 4 mps 776 mmHg 68%
    13:00 +12°C° 0 mm 4 mps 776 mmHg 67%
    14:00 +13°C° 0 mm 3 mps 775 mmHg 66%
    15:00 +13°C° 0 mm 3 mps 775 mmHg 65%
    16:00 +12°C° 0 mm 3 mps 775 mmHg 70%
    17:00 +12°C° 0 mm 2 mps 775 mmHg 75%
    18:00 +10°C° 0 mm 2 mps 775 mmHg 80%
    19:00 +9°C° 0 mm 2 mps 775 mmHg 84%
    20:00 +7°C° 0 mm 2 mps 775 mmHg 87%
    21:00 +6°C° 0 mm 2 mps 775 mmHg 91%
    22:00 +6°C° 0 mm 2 mps 775 mmHg 91%
    23:00 +6°C° 0 mm 2 mps 775 mmHg 91%
    Show more